CGMPW CYEG-CYYC

Flight info

Callsign CGMPW
Flight time 0h 32m
Altitude 26000
Route OLIMI Q814 ADVOX ADVOX9
Aircraft PC24/L-SBDGIRWY/LB2

Departure

Time 2026-05-03 20:54
Airport Edmonton International Airport (CYEG)

Arrival

Time 2026-05-03 21:26
Airport Calgary International Airport (CYYC)
Time Latitude Longitude Altitude Speed Heading
2026-05-03 20:40 53.30141 -113.57665 2349 ft 0 kts 35°
2026-05-03 20:49 53.30173 -113.57657 2349 ft 8 kts 26°
2026-05-03 20:49 53.30197 -113.57711 2349 ft 14 kts 252°
2026-05-03 20:49 53.30099 -113.57836 2350 ft 20 kts 143°
2026-05-03 20:50 53.29998 -113.57866 2350 ft 17 kts 230°
2026-05-03 20:50 53.29908 -113.57881 2350 ft 16 kts 137°
2026-05-03 20:50 53.29814 -113.57729 2349 ft 21 kts 135°
2026-05-03 20:50 53.29708 -113.57556 2348 ft 22 kts 135°
2026-05-03 20:51 53.29599 -113.57373 2347 ft 22 kts 135°
2026-05-03 20:51 53.29488 -113.57185 2347 ft 23 kts 135°
2026-05-03 20:51 53.29372 -113.56993 2346 ft 24 kts 135°
2026-05-03 20:51 53.29254 -113.56801 2345 ft 23 kts 134°
2026-05-03 20:52 53.29141 -113.56612 2344 ft 23 kts 135°
2026-05-03 20:52 53.29032 -113.56428 2343 ft 22 kts 135°
2026-05-03 20:52 53.28921 -113.56261 2343 ft 21 kts 153°
2026-05-03 20:52 53.28847 -113.56245 2342 ft 11 kts 179°
2026-05-03 20:53 53.28777 -113.56248 2342 ft 0 kts 186°
2026-05-03 20:53 53.28773 -113.56249 2343 ft 5 kts 190°
2026-05-03 20:53 53.28719 -113.56364 2342 ft 18 kts 283°
2026-05-03 20:54 53.28901 -113.56686 2342 ft 77 kts 315°
2026-05-03 20:54 53.30167 -113.58900 3046 ft 169 kts 313°
2026-05-03 20:54 53.31048 -113.60582 3746 ft 211 kts 313°
2026-05-03 20:55 53.32107 -113.62557 4365 ft 250 kts 313°
2026-05-03 20:55 53.33366 -113.64845 4953 ft 277 kts 314°
2026-05-03 20:55 53.34636 -113.67136 5481 ft 274 kts 314°
2026-05-03 20:55 53.35952 -113.69527 6038 ft 268 kts 314°
2026-05-03 20:56 53.37131 -113.71680 6535 ft 246 kts 313°
2026-05-03 20:56 53.38347 -113.73879 7052 ft 268 kts 313°
2026-05-03 20:56 53.39641 -113.76195 7581 ft 273 kts 313°
2026-05-03 20:56 53.40513 -113.79028 8097 ft 285 kts 284°
2026-05-03 20:57 53.40292 -113.82380 8638 ft 298 kts 257°
2026-05-03 20:57 53.39587 -113.85686 9175 ft 305 kts 253°
2026-05-03 20:57 53.38333 -113.88639 9793 ft 321 kts 230°
2026-05-03 20:57 53.36430 -113.90731 10394 ft 338 kts 208°
2026-05-03 20:58 53.34144 -113.91853 11011 ft 347 kts 201°
2026-05-03 20:58 53.31819 -113.92882 11684 ft 352 kts 200°
2026-05-03 20:58 53.29368 -113.93792 12496 ft 361 kts 199°
2026-05-03 20:58 53.26928 -113.94695 13308 ft 367 kts 201°
2026-05-03 20:59 53.24430 -113.95699 14093 ft 372 kts 202°
2026-05-03 20:59 53.21891 -113.96719 14834 ft 377 kts 202°
2026-05-03 20:59 53.19327 -113.97715 15597 ft 380 kts 202°
2026-05-03 20:59 53.16743 -113.98721 16382 ft 381 kts 202°
2026-05-03 21:00 53.14152 -113.99741 17179 ft 385 kts 203°
2026-05-03 21:00 53.13300 -114.00075 17445 ft 386 kts 203°
2026-05-03 21:00 53.08887 -114.01800 18751 ft 391 kts 203°
2026-05-03 21:00 53.06268 -114.02819 19456 ft 395 kts 203°
2026-05-03 21:01 53.03585 -114.03866 20211 ft 397 kts 202°
2026-05-03 21:01 53.00892 -114.04915 20943 ft 399 kts 202°
2026-05-03 21:01 52.98182 -114.05966 21737 ft 400 kts 202°
2026-05-03 21:01 52.95465 -114.07021 22543 ft 401 kts 202°
2026-05-03 21:02 52.92779 -114.08062 23370 ft 401 kts 202°
2026-05-03 21:02 52.90067 -114.09111 24099 ft 400 kts 202°
2026-05-03 21:02 52.87417 -114.10121 24814 ft 382 kts 202°
2026-05-03 21:02 52.84835 -114.11117 25488 ft 382 kts 203°
2026-05-03 21:03 52.83077 -114.11812 25816 ft 387 kts 203°
2026-05-03 21:03 52.80403 -114.12869 26001 ft 404 kts 202°
2026-05-03 21:03 52.77626 -114.13942 26006 ft 424 kts 201°
2026-05-03 21:03 52.74694 -114.15051 26007 ft 439 kts 200°
2026-05-03 21:04 52.71690 -114.16193 26010 ft 446 kts 201°
2026-05-03 21:04 52.68655 -114.17357 26003 ft 449 kts 201°
2026-05-03 21:04 52.65614 -114.18524 26009 ft 448 kts 201°
2026-05-03 21:04 52.62582 -114.19681 26008 ft 447 kts 200°
2026-05-03 21:05 52.59549 -114.20834 25983 ft 446 kts 200°
2026-05-03 21:05 52.56530 -114.21988 25990 ft 445 kts 200°
2026-05-03 21:05 52.53513 -114.23138 25995 ft 445 kts 200°
2026-05-03 21:05 52.50497 -114.24287 25989 ft 445 kts 200°
2026-05-03 21:06 52.47461 -114.25435 25954 ft 447 kts 200°
2026-05-03 21:06 52.44470 -114.26569 25927 ft 444 kts 200°
2026-05-03 21:06 52.41473 -114.27702 25933 ft 442 kts 200°
2026-05-03 21:06 52.38472 -114.28838 25933 ft 442 kts 200°
2026-05-03 21:07 52.35466 -114.29976 25929 ft 443 kts 200°
2026-05-03 21:07 52.32456 -114.31108 25928 ft 444 kts 200°
2026-05-03 21:07 52.29444 -114.32243 25932 ft 444 kts 200°
2026-05-03 21:07 52.26430 -114.33374 25935 ft 445 kts 200°
2026-05-03 21:08 52.23413 -114.34508 25939 ft 445 kts 200°
2026-05-03 21:08 52.20390 -114.35639 25936 ft 445 kts 200°
2026-05-03 21:08 52.17358 -114.36778 25678 ft 446 kts 199°
2026-05-03 21:08 52.14350 -114.37898 25411 ft 441 kts 199°
2026-05-03 21:09 52.11373 -114.39005 25142 ft 437 kts 199°
2026-05-03 21:09 52.08417 -114.40111 24879 ft 435 kts 199°
2026-05-03 21:09 52.05477 -114.41206 24621 ft 433 kts 199°
2026-05-03 21:09 52.02578 -114.42284 24361 ft 431 kts 199°
2026-05-03 21:10 51.99659 -114.43367 24103 ft 429 kts 199°
2026-05-03 21:10 51.96752 -114.44446 23857 ft 428 kts 199°
2026-05-03 21:10 51.93850 -114.45520 23605 ft 427 kts 199°
2026-05-03 21:10 51.90952 -114.46591 23319 ft 426 kts 199°
2026-05-03 21:11 51.88073 -114.47654 22999 ft 422 kts 199°
2026-05-03 21:11 51.85214 -114.48706 22591 ft 420 kts 199°
2026-05-03 21:11 51.82372 -114.49756 22191 ft 417 kts 199°
2026-05-03 21:11 51.79553 -114.50791 21796 ft 413 kts 199°
2026-05-03 21:12 51.76754 -114.51818 21408 ft 410 kts 199°
2026-05-03 21:12 51.73983 -114.52835 21020 ft 407 kts 199°
2026-05-03 21:12 51.71228 -114.53846 20637 ft 405 kts 199°
2026-05-03 21:12 51.68518 -114.54841 20269 ft 403 kts 199°
2026-05-03 21:13 51.65787 -114.55839 19903 ft 402 kts 199°
2026-05-03 21:13 51.63061 -114.56832 19470 ft 402 kts 199°
2026-05-03 21:13 51.60329 -114.57806 18942 ft 400 kts 197°
2026-05-03 21:13 51.57522 -114.57788 18337 ft 412 kts 172°
2026-05-03 21:14 51.54882 -114.55982 17682 ft 413 kts 148°
2026-05-03 21:14 51.52635 -114.53188 17069 ft 406 kts 140°
2026-05-03 21:14 51.50501 -114.50230 16450 ft 400 kts 140°
2026-05-03 21:14 51.48338 -114.47478 15848 ft 393 kts 145°
2026-05-03 21:15 51.46288 -114.44625 15245 ft 388 kts 137°
2026-05-03 21:15 51.44339 -114.41655 14662 ft 385 kts 138°
2026-05-03 21:15 51.42416 -114.38709 14092 ft 380 kts 137°
2026-05-03 21:15 51.40558 -114.35755 13490 ft 372 kts 136°
2026-05-03 21:16 51.38751 -114.32902 12868 ft 366 kts 137°
2026-05-03 21:16 51.36932 -114.30081 12250 ft 362 kts 137°
2026-05-03 21:16 51.35138 -114.27292 11643 ft 358 kts 137°
2026-05-03 21:16 51.33358 -114.24519 11047 ft 354 kts 137°
2026-05-03 21:17 51.31601 -114.21778 10453 ft 351 kts 137°
2026-05-03 21:17 51.30442 -114.19977 10081 ft 350 kts 137°
2026-05-03 21:17 51.27888 -114.16903 9221 ft 342 kts 160°
2026-05-03 21:17 51.25606 -114.16287 8607 ft 334 kts 181°
2026-05-03 21:18 51.23329 -114.16291 8125 ft 316 kts 184°
2026-05-03 21:18 51.21231 -114.16356 7992 ft 286 kts 184°
2026-05-03 21:18 51.19335 -114.16368 7976 ft 259 kts 183°
2026-05-03 21:18 51.17571 -114.16354 7984 ft 249 kts 182°
2026-05-03 21:19 51.15857 -114.16355 7989 ft 244 kts 183°
2026-05-03 21:19 51.14151 -114.16362 7981 ft 247 kts 183°
2026-05-03 21:19 51.12414 -114.16363 7992 ft 251 kts 182°
2026-05-03 21:19 51.10665 -114.16353 8000 ft 253 kts 183°
2026-05-03 21:20 51.08885 -114.16349 7998 ft 256 kts 182°
2026-05-03 21:20 51.07128 -114.16347 8007 ft 244 kts 183°
2026-05-03 21:20 51.05509 -114.16346 7975 ft 220 kts 183°
2026-05-03 21:20 51.04023 -114.16334 7706 ft 214 kts 183°
2026-05-03 21:21 51.02559 -114.16341 7458 ft 206 kts 185°
2026-05-03 21:21 51.01139 -114.16196 7210 ft 207 kts 166°
2026-05-03 21:21 50.99830 -114.15277 6977 ft 205 kts 147°
2026-05-03 21:21 50.98786 -114.13790 6734 ft 199 kts 126°
2026-05-03 21:22 50.98096 -114.11928 6505 ft 193 kts 106°
2026-05-03 21:22 50.97794 -114.09899 6273 ft 186 kts 89°
2026-05-03 21:22 50.97865 -114.07900 6047 ft 176 kts 71°
2026-05-03 21:22 50.98253 -114.06109 5832 ft 169 kts 55°
2026-05-03 21:23 50.98884 -114.04625 5647 ft 161 kts 43°
2026-05-03 21:23 50.99706 -114.03444 5455 ft 158 kts 28°
2026-05-03 21:23 51.00656 -114.02628 5262 ft 152 kts 17°
2026-05-03 21:23 51.01668 -114.02203 5081 ft 150 kts
2026-05-03 21:24 51.02699 -114.02139 4895 ft 147 kts 357°
2026-05-03 21:24 51.03705 -114.02137 4700 ft 142 kts 358°
2026-05-03 21:24 51.04680 -114.02143 4507 ft 137 kts 359°
2026-05-03 21:24 51.05587 -114.02137 4341 ft 118 kts 358°
2026-05-03 21:25 51.06357 -114.02142 4105 ft 108 kts
2026-05-03 21:25 51.07150 -114.02139 3873 ft 124 kts
2026-05-03 21:25 51.08009 -114.02152 3865 ft 120 kts
2026-05-03 21:25 51.08819 -114.02156 3749 ft 115 kts
2026-05-03 21:26 51.09644 -114.02152 3654 ft 127 kts
2026-05-03 21:26 51.10445 -114.02150 3553 ft 102 kts
2026-05-03 21:26 51.10881 -114.02136 3555 ft 33 kts
2026-05-03 21:26 51.11101 -114.02141 3552 ft 30 kts
2026-05-03 21:27 51.11294 -114.02136 3549 ft 27 kts 360°
2026-05-03 21:27 51.11431 -114.02255 3544 ft 24 kts 277°
2026-05-03 21:27 51.11348 -114.02415 3548 ft 21 kts 184°
2026-05-03 21:27 51.11202 -114.02412 3549 ft 22 kts 181°
2026-05-03 21:28 51.11057 -114.02416 3551 ft 20 kts 181°
2026-05-03 21:28 51.10917 -114.02418 3552 ft 20 kts 181°
2026-05-03 21:28 51.10768 -114.02426 3553 ft 22 kts 187°
2026-05-03 21:28 51.10628 -114.02492 3553 ft 20 kts 200°
2026-05-03 21:29 51.10493 -114.02560 3550 ft 21 kts 195°
2026-05-03 21:29 51.10348 -114.02584 3547 ft 20 kts 183°
2026-05-03 21:29 51.10213 -114.02599 3549 ft 18 kts 184°